Change the Weather History Date:

Saturday, April 26, 2014

  Actual Average Record
Temperature  
Mean Temperature 45 °F 47 °F  
Max Temperature 58 °F 64 °F 78 °F (1987)
Min Temperature 31 °F 31 °F 17 °F (1984)
Degree Days  
Heating Degree Days 20 18  
Month to date heating degree days 512 539  
Since 1 July heating degree days 6259 6568  
Cooling Degree Days 0 0  
Month to date cooling degree days 0 0  
Year to date cooling degree days 0 0  
Moisture  
Dew Point 27 °F    
Average Humidity 57    
Maximum Humidity 92    
Minimum Humidity 22    
Precipitation  
Precipitation 0.09 in 0.02 in 0.36 in (1985)
Month to date precipitation 0.18 0.99  
Year to date precipitation 1.71 4.52  
Sea Level Pressure  
Sea Level Pressure 29.62 in    
Wind  
Wind Speed 12 mph (SW)    
Max Wind Speed 43 mph    
Max Gust Speed 54 mph    
Visibility 8 miles    
Events Rain , Snow    
T = Trace of Precipitation, MM = Missing Value Source: NWS Daily Summary

Daily Weather History Graph

Daily Weather History Graph

Search for Another Location

Airport or City:

Trip Planner

Search our weather history database for the weather conditions in past years. The results will help you decide how hot, cold, wet, or windy it might be!

Date:

Astronomy

Apr. 26, 2014 Rise Set
Actual Time 6:22 AM MDT 7:55 PM MDT
Civil Twilight 5:54 AM MDT 8:23 PM MDT
Nautical Twilight 5:21 AM MDT 8:56 PM MDT
Astronomical Twilight 4:46 AM MDT 9:31 PM MDT
Moon 4:44 AM MDT (4/26) 5:30 PM MDT (4/26)
Length of Visible Light 14h 28m
Length of Day
13h 33m
Waning Crescent, 8% of the Moon is Illuminated
Apr 26
Waning Crescent
Apr 29
New
May 6
First Quarter
May 14
Full
May 21
Last Quarter

Hourly Weather History & Observations

Time (MDT) Temp. Windchill Dew Point Humidity Pressure Visibility Wind Dir Wind Speed Gust Speed Precip Events Conditions
12:53 AM 46.9 °F - 17.1 °F 30% 29.68 in 10.0 mi Calm Calm - N/A   Clear
1:53 AM 43.0 °F 38.8 °F 17.1 °F 35% 29.67 in 10.0 mi North 6.9 mph - N/A   Clear
2:53 AM 37.9 °F 32.7 °F 17.1 °F 43% 29.66 in 10.0 mi NE 6.9 mph - N/A   Clear
3:53 AM 41.0 °F 36.4 °F 18.0 °F 40% 29.62 in 10.0 mi East 6.9 mph - N/A   Clear
4:53 AM 44.1 °F 42.5 °F 18.0 °F 35% 29.60 in 10.0 mi Variable 3.5 mph - N/A   Clear
5:53 AM 45.0 °F - 19.0 °F 36% 29.58 in 10.0 mi Calm Calm - N/A   Partly Cloudy
6:53 AM 50.0 °F - 18.0 °F 28% 29.56 in 10.0 mi SSW 5.8 mph - N/A   Overcast
7:53 AM 50.0 °F - 19.0 °F 29% 29.56 in 10.0 mi Calm Calm - N/A   Scattered Clouds
8:53 AM 51.1 °F - 24.1 °F 35% 29.56 in 10.0 mi East 6.9 mph - N/A   Overcast
9:53 AM 53.1 °F - 21.9 °F 30% 29.54 in 10.0 mi ESE 10.4 mph - N/A   Mostly Cloudy
10:53 AM 55.9 °F - 18.0 °F 23% 29.52 in 10.0 mi SW 17.3 mph 33.4 mph N/A   Mostly Cloudy
11:53 AM 55.0 °F - 18.0 °F 23% 29.53 in 10.0 mi SW 21.9 mph 33.4 mph N/A   Overcast
12:53 PM 55.0 °F - 19.9 °F 25% 29.49 in 8.0 mi SSW 23.0 mph 32.2 mph N/A   Overcast
1:53 PM 55.0 °F - 21.0 °F 27% 29.47 in 5.0 mi SSW 29.9 mph 43.7 mph 0.00 in   Haze
2:53 PM 57.0 °F - 21.9 °F 26% 29.46 in 9.0 mi SSW 27.6 mph 47.2 mph N/A   Overcast
3:11 PM 54.0 °F - 23.0 °F 30% 29.57 in 8.0 mi SSW 26.5 mph 54.1 mph N/A   Overcast
3:49 PM 44.6 °F 33.9 °F 35.6 °F 71% 29.62 in 6.0 mi West 35.7 mph 54.1 mph 0.00 in Rain Light Rain
3:53 PM 39.9 °F 28.0 °F 36.0 °F 86% 29.58 in 5.0 mi West 32.2 mph 54.1 mph 0.00 in Rain Light Rain
4:10 PM 37.9 °F 26.6 °F 36.0 °F 93% 29.66 in 10.0 mi WSW 25.3 mph 42.6 mph 0.00 in Rain Light Rain
4:53 PM 37.0 °F 27.4 °F 35.1 °F 93% 29.62 in 10.0 mi West 17.3 mph - 0.02 in Rain Light Rain
5:18 PM 35.1 °F 23.5 °F 34.0 °F 96% 29.70 in 2.5 mi WSW 21.9 mph - 0.04 in Snow Light Snow
5:22 PM 33.1 °F 21.9 °F 33.1 °F 100% 29.71 in 1.2 mi WSW 18.4 mph - 0.04 in Snow Light Snow
5:35 PM 33.1 °F 21.2 °F 32.0 °F 96% 29.72 in 0.8 mi WSW 20.7 mph 41.4 mph 0.06 in Snow Light Snow
5:41 PM 33.1 °F 20.9 °F 32.0 °F 96% 29.71 in 1.0 mi WSW 21.9 mph 38.0 mph 0.06 in Snow Light Snow
5:46 PM 34.0 °F 22.1 °F 33.1 °F 96% 29.70 in 2.0 mi West 21.9 mph 32.2 mph 0.06 in Snow Light Snow
5:49 PM 35.6 °F 23.7 °F 33.8 °F 93% 29.70 in 3.0 mi WSW 24.2 mph 32.2 mph 0.06 in Snow Light Snow
5:53 PM 35.1 °F 24.8 °F 34.0 °F 96% 29.66 in 5.0 mi WSW 17.3 mph 29.9 mph 0.06 in Snow Light Snow
6:09 PM 35.1 °F 32.2 °F 34.0 °F 96% 29.69 in 10.0 mi West 3.5 mph - 0.00 in   Mostly Cloudy
6:53 PM 35.1 °F 32.2 °F 33.1 °F 92% 29.62 in 10.0 mi South 3.5 mph - 0.00 in   Overcast
7:53 PM 35.1 °F 30.1 °F 30.9 °F 85% 29.64 in 10.0 mi ESE 5.8 mph - N/A   Mostly Cloudy
8:53 PM 33.1 °F 24.4 °F 28.0 °F 82% 29.66 in 10.0 mi West 11.5 mph - 0.00 in   Overcast
9:53 PM 32.0 °F 25.6 °F 28.9 °F 88% 29.65 in 9.0 mi West 6.9 mph - 0.00 in Snow Light Snow
10:53 PM 30.9 °F 27.5 °F 30.0 °F 96% 29.65 in 9.0 mi WSW 3.5 mph - 0.00 in   Overcast
11:37 PM 30.9 °F 24.3 °F 28.9 °F 92% 29.71 in 10.0 mi SW 6.9 mph - N/A   Overcast
11:49 PM 30.2 °F 24.3 °F 28.4 °F 93% 29.70 in 10.0 mi SW 5.8 mph - N/A   Overcast
11:53 PM 30.9 °F 25.2 °F 28.9 °F 92% 29.63 in 10.0 mi SW 5.8 mph - N/A   Overcast